Home   Weather   Sochi   Past weeks

Flag for Russia Past Weather in Sochi, Russia — Yesterday and Last 2 Weeks

Now
57 °F

Clear.


Feels Like: 56 °F
Forecast: 50 / 72 °F
Wind: 6 mph from Northeast

Location: Adler

Current Time: May 25, 2017 at 9:23:52 pm

Latest Report: May 25, 2017 at 8:30 pm


Visibility: N/A

Pressure: 30.01 "Hg

Humidity: 82%

Dew Point: 52 °F

Location of SochiLocation

Past Weather in Sochi — Graph

°F

Sochi Temperature Yesterday

Maximum temperature yesterday: 61 °F (at 12:00 pm)
Minimum temperature yesterday: 52 °F (at 3:00 am)
Average temperature yesterday: 56 °F

High & Low Weather Summary for the Past Weeks

 TemperatureHumidityPressure
High75 °F (May 13, 12:30 pm)100% (May 16, 1:30 am)30.18 "Hg (May 16, 1:30 am)
Low48 °F (May 12, 12:30 am)36% (May 13, 3:00 pm)29.74 "Hg (May 14, 3:00 am)
Average59 °F83%29.96 "Hg
* Reported May 10 8:00 pm — May 25 8:00 pm, Sochi. Weather by CustomWeather, © 2017

Note: Actual official high and low records may vary slightly from our data, if they occured in-between our weather recording intervals... More about our weather records

Advertising

Sochi Weather History for the Previous 24 Hours

Scroll right to see more
 ConditionsComfort  
Time TempWeatherWind HumidityBarometerVisibility
8:00 pm
Thu, May 25
59 °FClear.No wind68%30.01 "HgN/A
7:30 pm63 °FClear.3 mph56%30.01 "HgN/A
7:00 pm63 °FClear.3 mph56%30.01 "HgN/A
6:30 pm64 °FPassing clouds.3 mph49%30.04 "HgN/A
6:00 pm64 °FPassing clouds.6 mph52%30.04 "HgN/A
5:30 pm64 °FPassing clouds.6 mph52%30.04 "HgN/A
5:00 pm66 °FPassing clouds.6 mph49%30.04 "HgN/A
4:30 pm66 °FPassing clouds.1 mph46%30.04 "HgN/A
4:00 pm66 °FPassing clouds.6 mph52%30.04 "HgN/A
3:30 pm66 °FPassing clouds.6 mph52%30.04 "HgN/A
3:00 pm66 °FPassing clouds.6 mph52%30.04 "HgN/A
2:30 pm64 °FPassing clouds.3 mph49%30.07 "HgN/A
2:00 pm64 °FPassing clouds.6 mph56%30.07 "HgN/A
1:30 pm64 °FPassing clouds.6 mph60%30.07 "HgN/A
1:00 pm64 °FPassing clouds.8 mph60%30.07 "HgN/A
12:30 pm64 °FPassing clouds.8 mph56%30.07 "HgN/A
12:00 pm64 °FPassing clouds.8 mph60%30.07 "HgN/A
11:30 am63 °FPassing clouds.8 mph64%30.07 "HgN/A
11:00 am64 °FPassing clouds.8 mph60%30.07 "HgN/A
10:30 am63 °FBroken clouds.8 mph59%30.07 "HgN/A
10:00 am63 °FScattered clouds.3 mph59%30.07 "HgN/A
9:30 am61 °FPassing clouds.1 mph63%30.07 "HgN/A
9:00 am59 °FOvercast.1 mph77%30.07 "HgN/A
8:30 am57 °FOvercast.3 mph82%30.07 "HgN/A
8:00 am57 °FOvercast.6 mph82%30.07 "HgN/A
7:30 am55 °FPassing clouds.8 mph82%30.07 "HgN/A
7:00 am57 °FPassing clouds.6 mph82%30.07 "HgN/A
6:30 am55 °FPartly sunny.6 mph88%30.07 "HgN/A
6:00 am54 °FPartly sunny.3 mph94%30.07 "HgN/A
5:30 am54 °FPartly sunny.No wind88%30.07 "HgN/A
5:00 am54 °FPartly sunny.6 mph88%30.07 "HgN/A
4:30 am54 °FPassing clouds.1 mph88%30.07 "HgN/A
4:00 am54 °FPassing clouds.No wind88%30.07 "HgN/A
3:30 am54 °FPassing clouds.1 mph88%30.07 "HgN/A
3:00 am54 °FPassing clouds.No wind88%30.07 "HgN/A
2:30 am52 °FPassing clouds.1 mph94%30.09 "HgN/A
2:00 am52 °FPassing clouds.8 mph94%30.09 "HgN/A
1:30 am52 °FPassing clouds.6 mph94%30.09 "HgN/A
1:00 am54 °FPassing clouds.6 mph94%30.09 "HgN/A
12:30 am54 °FPassing clouds.6 mph94%30.09 "HgN/A
12:00 am54 °FPassing clouds.6 mph94%30.12 "HgN/A
11:30 pm
Wed, May 24
54 °FPassing clouds.6 mph94%30.12 "HgN/A
11:00 pm55 °FPartly cloudy.8 mph88%30.12 "HgN/A
10:00 pm54 °FPassing clouds.6 mph94%30.12 "HgN/A
9:30 pm54 °FPassing clouds.3 mph94%30.12 "HgN/A
9:00 pm55 °FPassing clouds.3 mph88%30.09 "HgN/A
Weather by CustomWeather, © 2017

See weather overviewHow to use our weather pages